Weather History for KCDR - January, 2013

Change the Weather History Date:

Sunday, January 20, 2013

  Actual Average Record
Temperature  
Mean Temperature 21 °F 24 °F  
Max Temperature 28 °F 39 °F 65 °F (2009)
Min Temperature 13 °F 10 °F -26 °F (1949)
Degree Days  
Heating Degree Days 44 40  
Month to date heating degree days 818 817  
Since 1 July heating degree days 3529 3759  
Cooling Degree Days 0 0  
Month to date cooling degree days 0 0  
Year to date cooling degree days 0 0  
Moisture  
Dew Point 16 °F    
Average Humidity 82    
Maximum Humidity 96    
Minimum Humidity 68    
Precipitation  
Precipitation 0.00 in 0.01 in 0.33 in (1973)
Month to date precipitation T 0.22  
Year to date precipitation T 0.22  
Sea Level Pressure  
Sea Level Pressure 30.38 in    
Wind  
Wind Speed 5 mph (North)    
Max Wind Speed 25 mph    
Max Gust Speed 30 mph    
Visibility 9 miles    
Events      
T = Trace of Precipitation, MM = Missing Value Source: NWS Daily Summary

Daily Weather History Graph

Daily Weather History Graph

Search for Another Location

Airport or City:

Trip Planner

Search our weather history database for the weather conditions in past years. The results will help you decide how hot, cold, wet, or windy it might be!

Date:

Astronomy

Jan. 20, 2013 Rise Set
Actual Time 7:17 AM MST 4:50 PM MST
Civil Twilight 6:46 AM MST 5:21 PM MST
Nautical Twilight 6:11 AM MST 5:55 PM MST
Astronomical Twilight 5:38 AM MST 6:29 PM MST
Moon 11:53 AM MST (1/20) 1:50 AM MST (1/20)
Length of Visible Light 10h 34m
Length of Day
9h 32m
Waxing Gibbous, 67% of the Moon is Illuminated
Jan 20
Waxing Gibbous
Jan 26
Full
Feb 3
Last Quarter
Feb 10
New
Feb 17
First Quarter

Hourly Weather History & Observations

Time (MST) Temp. Windchill Dew Point Humidity Pressure Visibility Wind Dir Wind Speed Gust Speed Precip Events Conditions
12:53 AM 21.9 °F 17.2 °F 19.0 °F 89% 30.21 in 10.0 mi WSW 3.5 mph - N/A   Clear
1:53 AM 21.0 °F 11.4 °F 18.0 °F 88% 30.19 in 10.0 mi WSW 8.1 mph - N/A   Clear
2:53 AM 23.0 °F 13.1 °F 19.9 °F 88% 30.19 in 10.0 mi WSW 9.2 mph - N/A   Clear
3:53 AM 25.0 °F 14.8 °F 21.0 °F 85% 30.18 in 10.0 mi West 10.4 mph - N/A   Clear
4:53 AM 27.0 °F 17.3 °F 21.0 °F 78% 30.22 in 10.0 mi West 10.4 mph - N/A   Clear
5:53 AM 27.0 °F 16.1 °F 19.9 °F 75% 30.26 in 10.0 mi West 12.7 mph - N/A   Mostly Cloudy
6:53 AM 28.0 °F 18.1 °F 19.9 °F 72% 30.32 in 10.0 mi NNW 11.5 mph - N/A   Overcast
7:02 AM 21.2 °F 5.6 °F 17.6 °F 86% 30.24 in 10.0 mi NNE 20.7 mph 29.9 mph N/A   Overcast
7:07 AM 19.4 °F 3.2 °F 17.6 °F 93% 30.25 in 10.0 mi NNE 20.7 mph - N/A   Overcast
7:16 AM 19.4 °F 4.1 °F 17.6 °F 93% 30.25 in 9.0 mi North 18.4 mph 25.3 mph N/A   Overcast
7:53 AM 19.0 °F 5.6 °F 16.0 °F 88% 30.45 in 7.0 mi NNE 13.8 mph - N/A   Overcast
8:53 AM 19.0 °F 6.8 °F 15.1 °F 85% 30.51 in 7.0 mi North 11.5 mph - N/A   Overcast
9:53 AM 19.0 °F 9.0 °F 15.1 °F 85% 30.54 in 6.0 mi North 8.1 mph - N/A   Overcast
10:53 AM 19.9 °F 10.1 °F 15.1 °F 81% 30.54 in 7.0 mi North 8.1 mph - N/A   Overcast
11:07 AM 19.4 °F 10.4 °F 15.8 °F 86% 30.37 in 7.0 mi North 6.9 mph - N/A   Overcast
11:53 AM 21.9 °F - 15.1 °F 75% 30.52 in 8.0 mi Calm Calm - N/A   Overcast
12:53 PM 21.9 °F - 16.0 °F 78% 30.50 in 8.0 mi Calm Calm - N/A   Overcast
1:53 PM 24.1 °F 19.7 °F 16.0 °F 71% 30.47 in 9.0 mi Variable 3.5 mph - N/A   Overcast
2:53 PM 24.1 °F 19.7 °F 16.0 °F 71% 30.45 in 9.0 mi ENE 3.5 mph - N/A   Overcast
3:53 PM 24.1 °F 16.0 °F 15.1 °F 69% 30.45 in 10.0 mi ENE 6.9 mph - N/A   Mostly Cloudy
4:49 PM 21.2 °F 13.6 °F 15.8 °F 80% 30.29 in 9.0 mi East 5.8 mph - N/A   Scattered Clouds
4:53 PM 21.0 °F 14.6 °F 15.1 °F 78% 30.44 in 9.0 mi East 4.6 mph - N/A   Scattered Clouds
5:53 PM 19.0 °F - 15.1 °F 85% 30.45 in 10.0 mi Calm Calm - N/A   Scattered Clouds
6:53 PM 16.0 °F - 12.0 °F 84% 30.47 in 9.0 mi Calm Calm - N/A   Scattered Clouds
7:53 PM 15.1 °F - 12.0 °F 88% 30.50 in 8.0 mi Calm Calm - N/A   Partly Cloudy
8:37 PM 15.8 °F - 12.2 °F 86% 30.32 in 8.0 mi Calm Calm - N/A   Overcast
8:53 PM 15.1 °F - 12.9 °F 91% 30.51 in 8.0 mi Calm Calm - N/A   Overcast
9:28 PM 15.8 °F - 12.2 °F 86% 30.32 in 8.0 mi Calm Calm - N/A   Overcast
9:53 PM 14.0 °F - 12.0 °F 92% 30.51 in 8.0 mi Calm Calm - N/A   Mostly Cloudy
10:53 PM 15.1 °F - 10.9 °F 84% 30.49 in 8.0 mi Calm Calm - N/A   Mostly Cloudy
11:32 PM 14.0 °F 8.2 °F 10.4 °F 86% 30.32 in 9.0 mi North 3.5 mph - N/A   Overcast
11:53 PM 16.0 °F - 10.9 °F 81% 30.48 in 10.0 mi Calm Calm - N/A   Overcast